Location: Newark
(45.1000°N, 8.5833°E)
Time: 06:07:58
(UTC+00:00)

ISS - Pass Details

Date: 19 September 2019
Orbit: 411 x 421 km, 51.6° (Epoch: 22 October)

Event Time Altitude Azimuth Distance (km) Brightness Sun altitude
Rises 20:05:25 0° 248° (WSW) 2,336 0.5 -26.8°
Reaches altitude 10° 20:07:31 10° 252° (WSW) 1,477 -0.6 -27.1°
Enters shadow 20:07:52 12° 253° (WSW) 1,336 -0.8 -27.2°
